Location: Bratislava
(48.1500°N, 17.1170°E)
Time: 05:27:22
(UTC+02:00)

Tiangong 1 - Visible Passes

Search period start: 24 April 2017 00:00
Search period end: 04 May 2017 00:00
Orbit: 329 x 353 km, 42.8° (Epoch: 22 April)

Date Brightness Start Highest point End Pass type
(mag) Time Alt. Az. Time Alt. Az. Time Alt. Az.
24 Apr 2.7 03:45:23 20° SE 03:45:23 20° SE 03:46:44 10° ESE visible
25 Apr 2.1 04:06:33 25° S 04:06:33 25° S 04:08:43 10° SE visible
26 Apr 2.3 04:27:46 19° SSW 04:28:11 20° SSW 04:30:21 10° SE visible
27 Apr 2.9 04:49:05 12° SW 04:49:55 13° SSW 04:51:15 10° S visible
03 May 3.4 21:47:08 10° SSW 21:47:20 11° SSW 21:47:20 11° SSW visible
